CSG-2

Last updated on Thu Nov 21 2024 00:02:28 GMT+0000 (Coordinated Universal Time)

1 51444U 22008A 24325.58317622 .00000917 00000+0 12168-3 0 9997 2 51444 97.8866 146.4722 0001373 92.2857 267.8513 14.82160705151628
UTC large
Height (km)
Speed (km/s)
/
Latitude / Longitude
Inclination (degrees)
Orbital Period (minutes)
Azimuth
Elevation
Range (km)
Doppler Factor

Next 0 passes for location: London (51.5072 / 0.1276)

Sorry there are no passes over London.